www.pogodaiklimat.ru

Погода и климат >> Архив погоды >> Тунис >> Эль Борма


ПОГОДА в Эль Борма

  • Прогноз погоды в Эль Борма
  • Монитор погоды в Эль Борма

АРХИВ ПОГОДЫ в Эль Борма

Время (UTC), дата Ветер
(напр.,м/с)
 
Видим.   Явления Облачность Т
(С)
Тd
(С)
f
(%)
Тe
(С)
Тes
(С)
Комфортность P
(гПа)
Po
(гПа)
Тmin
(С)
Tmax
(С)
R
(мм)
R24
(мм)
S
(см)
06 15.04 Ю 1 10 км ясно +12.8 -3.4 32 +13 +15 1020.1 989.2 +10.8
09 15.04 ЮЗ 4 10 км ясно +22.6 -3.7 17 +21 +31 комфорт 1019.5 989.6
12 15.04 З 4 10 км ясно +26.6 -5.1 12 +24 +38 комфорт 1017.7 988.2
15 15.04 З 4 10 км ясно +28.6 -6.0 10 +25 +31 комфорт 1015.2 986.0
00 16.04 0 н/о н/о +18.4 +1.4 32 1017.8 987.6
06 16.04 В 2 10 км 5/0
[Ac cast Ci sp]
+13.8 +4.1 52 +14 +15 1019.1 988.4 +12.4
09 16.04 ЮВ 3 10 км 4/1 600 м
[Cu med, cong Ac cast Ci sp]
+24.2 -0.4 20 +23 +31 комфорт 1019.1 989.4
12 16.04 ЮЗ 4 10 км 4/1 600 м
[Cu med, cong Ac cast Ci sp]
+30.8 -5.7 9 +27 +38 жарко 1016.3 987.3
15 16.04 ЮЗ 6 10 км 3/0
[Ci sp]
+32.9 -5.7 8 +29 +32 жарко 1014.3 985.5
21 16.04 Ю 2-2
{4}
н/о н/о +23.0 -5.9 14 +21 +21 комфорт 1016.6 986.8
00 17.04 Ю 1-3
{4}
н/о н/о +20.0 -5.8 17 +21 +21 комфорт 1016.3 986.2
06 17.04 В 1 10 км ясно +17.5 -4.4 22 +19 +21 1016.6 986.3 +16.3
09 17.04 ЮЗ 1 10 км ясно +27.6 -3.3 13 +25 +42 комфорт 1017.4 988.1
12 17.04 З 2 10 км 1/0
[Ci sp]
+32.3 -3.2 10 +29 +47 жарко 1015.6 986.8
15 17.04 СЗ 4 10 км 6/0
[Ci sp]
+33.8 -2.0 10 +30 +35 жарко 1013.6 985.0
00 18.04 В 3-6
{9}
н/о н/о +20.1 +8.1 46 +22 +22 комфорт 1016.8 986.8
03 18.04 В 4-5
{6}
н/о н/о +17.5 +7.3 51 +17 +17 1015.8 985.6
06 18.04 В 3 10 км 1/0
[Ci sp]
+17.5 +7.0 50 +18 +19 1016.7 986.4 +16.2
09 18.04 ЮВ 4 10 км ясно +27.2 +4.3 23 +26 +36 жарко 1015.9 986.6
12 18.04 Ю 3 10 км 3/0
[Ac cast Ci sp]
+34.9 +0.1 11 +31 +47 жарко 1012.9 984.4
15 18.04 З 2 10 км 3/0
[Ac cast Ci sp]
+35.2 -4.0 8 +31 +38 жарко 1010.8 982.4
00 19.04 В 3-8
{12}
н/о н/о +23.6 +6.8 34 +24 +24 комфорт 1012.6 983.1
03 19.04 В 8-11
{14}
н/о н/о +22.6 +5.1 32 +23 +23 комфорт 1011.9 982.3
06 19.04 В 5 6000 м 3/0
[Ci sp]
+21.1 +3.8 32 +21 +22 комфорт 1012.8 983.0 +20.6
09 19.04 ЮВ 10 3000 м пыльный позёмок 6/0
[Ci sp]
+28.8 +1.3 17 +27 +27 жарко 1012.9 983.8
12 19.04 ЮВ 5 3000 м пыльный позёмок 8/0
[Ac cast Ci sp]
+35.6 -0.7 10 +32 +38 жарко 1010.7 982.3
15 19.04 Ю 8 3000 м пыльный позёмок 6/0
[Ac trans Ci sp]
+38.2 -5.6 6 +34 +35 очень
жарко
1007.8 979.5
06 20.04 ЮВ 5 6000 м ясно +23.1 +1.4 24 +22 +23 комфорт 1010.1 980.6 +22.6
09 20.04 ЮВ 6 3000 м пыльный позёмок ясно +31.4 -2.6 11 +28 +33 жарко 1009.2 980.5
12 20.04 Ю 6 300 м пыльная буря {метель} н/о +37.8 -3.9 7 +34 +34 очень
жарко
1006.2 978.1
15 20.04 Ю 4 1500 м пыльная буря на расстоянии {метель} н/о +39.4 -4.8 6 +35 +35 очень
жарко
1004.2 976.3
06 21.04 ЮВ 5 2000 м пыльный позёмок 3/0
[Ci sp]
+28.3 -4.9 11 +25 +26 комфорт 1004.0 975.1 +27.8
12 21.04 Ю 4 2500 м пыльный позёмок ясно +37.9 -3.8 7 +34 +47 очень
жарко
1001.3 973.4 0.2
15 21.04 Ю 5 3000 м пыльный позёмок 3/0
[Ac trans Ci sp]
+38.8 -3.2 7 +35 +39 очень
жарко
999.2 971.4

 

Местоположение метеостанции Эль Борма (Тунис): широта 31.68 долгота 9.17 высота над уровнем моря 259 м.

В архиве по умолчанию представлена погода в Эль Борма за последнюю неделю. Архивные данные за месяц целиком и за предыдущие месяцы, начиная с января 2011 года, Вы можете получить, выбрав интересующий диапазон дат из раскрывающегося списка и нажав кнопку "Ввод!".


*Определитесь, кто Вы:
робот инопланетянин человек

Внимание! Время в таблицах - всемирное. Для получения местного времени необходимо прибавить поправку, которая равна 1 ч.

Смотрите также архив погоды в соседних городах и на ближайших метеорологических станциях:

Погода в Ремаде (Тунис) (136 км)
Погода в Налуте (Ливия) (172 км)
Погода в Гадамесе (Ливия) (175 км)
Погода в Татуине (Тунис) (183 км)
Погода в Меденине (Тунис) (223 км)
Погода в Кебили (Тунис) (225 км)
Погода в Габесе (Тунис) (239 км)
Погода в Таузаре (Тунис) (266 км)
Погода в Хасси-Мессауде (Алжир) (286 км)
Погода в Аэропорту Джерба-Зарзис (Тунис) (286 км)

Пояснения к столбцам:

Ветер - указаны скорость ветра в м/с - средняя за 10 мин, порывы в срок и между сроками (в фигурных скобках) и направление, откуда дует ветер: С - северный, СВ - северо-восточный, В - восточный, ЮВ - юго-восточный, Ю - южный, ЮЗ - юго-западный, З - западный, СЗ - северо-западный.
Видимость - горизонтальная дальность видимости в метрах или километрах. При видимости от 1 до 10 км при отсутствии осадков обычно наблюдается дымка, при ухудшении видимости до 1 км и менее - туман. В сухую погоду видимость может ухудшаться дымом, пылью или мглою.
Явления - указаны атмосферные явления, наблюдавшиеся в срок или в последний час перед сроком; фигурными скобками обозначены явления, наблюдавшиеся между сроками (за 1-3 часа до срока); квадратными скобками обозначены град или гололедные отложения с указанием их диаметра в мм.
Облачность - указаны через наклонную черту общая и нижняя облачность в баллах и высота нижней границы облаков в метрах; квадратными скобками обозначены формы облаков: Ci - перистые, Cs - перисто-слоистые, Cc - перисто-кучевые, Ac - высококучевые, As - высокослоистые, Sc - слоисто-кучевые, Ns - слоисто-дождевые, Cu - кучевые, Cb - кучево-дождевые. Подробнее классификацию облаков см. в Атласе облаков (PDF).
T - Температура воздуха - температура, измеренная на высоте 2 м над землей.
Td - Температура точки росы - температура, при понижении до которой содержащийся в воздухе водяной пар достигнет насыщения.
f - Относительная влажность воздуха - влажноcть воздуха, измеренная на высоте 2 м над землей.
Te - Эффективная температура - температура, которую ощущает одетый по сезону человек в тени. Характеристика душности погоды. При расчете учитывается влияние влажности воздуха и скорости ветра на теплоощущения человека.
Tes - Эффективная температура на солнце - температура, которую ощущает человек, с поправкой на солнечный нагрев. Характеристика знойности погоды. Зависит от высоты солнца над горизонтом, облачности и скорости ветра. Ночью, в пасмурную погоду, а также при ветре 12 м/с и более поправка равна нулю.
P - Атмосферное давление - приведенное к уровню моря атмосферное давление.
Po - Атмосферное давление - измеренное на уровне метеостанции атмосферное давление.
Tmin - Минимальная температура - минимум температуры воздуха на высоте 2 м над землей.
Tmax - Максимальная температура - максимум температуры воздуха на высоте 2 м над землей.
R - Количество осадков - Количество выпавших осадков за период времени, мм. При наведении курсора мыши на число - период времени, за который выпало указанное количество осадков.
R24 - Количество осадков - Количество выпавших осадков за 24 часа, мм.
S - Снежный покров - Высота снежного покрова, см. При наведении курсора мыши на число - состояние снежного покрова и степень покрытия местности в баллах.